#timestamp,LO_Frequency,Hit,StdDev 
1459710015.6,286047002.7,N
1459710035.4,286047004.3,N
1459710055.2,286047003.5,N
1459710075.0,286047001.8,N
1459710076.0,286047001.8,N
1459710095.8,286047002.6,N
1459710115.6,286047002.3,N
1459710135.4,286047002.9,N
1459710155.3,286047004.6,N
1459710175.1,286047007.2,Y
1459710195.9,286047002.8,P
1459710215.7,286046999.9,N
1459710235.5,286047002.5,N
1459710255.3,286047000.9,N
1459710275.2,286047001.4,N
1459710295.9,286047002.4,N
1459710315.7,286047001.7,N
1459710335.6,286047000.2,N
1459710355.4,286046999.8,N
1459710375.2,286046998.9,N
1459710395.1,286047000.8,N
1459710396.0,286047000.8,N
1459710415.8,286047002.2,N
1459710435.6,286047000.6,N
1459710455.5,286047002.1,N
1459710475.3,286047002.0,N
1459710495.1,286046999.8,N
1459710515.8,286047002.2,N
1459710535.7,286047000.4,N
1459710555.5,286047002.8,N
1459710575.3,286047000.9,N
1459710595.2,286047000.9,N
1459710615.9,286047000.0,N
1459710635.7,286046999.7,N
1459710655.6,286047002.7,N
1459710675.4,286047002.8,N
1459710695.2,286047001.0,N
1459710715.1,286046999.9,N
1459710716.0,286046999.9,N
1459710735.8,286047002.8,N
1459710755.6,286047004.3,Y
1459710775.5,286047001.8,P
1459710795.3,286047003.0,P
1459710815.1,286047002.0,N
1459710835.9,286047000.4,N
1459710855.7,286047001.1,N
1459710875.5,286046998.4,N
1459710895.4,286047004.4,Y
1459710915.2,286047000.6,P
1459710935.0,286047000.9,P
1459710935.9,286047000.9,P
1459710955.8,286047002.5,Y
1459710975.6,286047002.4,P
1459710995.4,286047002.5,P
1459711015.3,286046999.9,N
1459711035.1,286047000.0,N
1459711036.0,286047000.0,N
1459711055.8,286046998.1,N
1459711075.6,286047000.0,N
1459711095.5,286046998.9,N
1459711115.3,286046997.4,N
1459711135.1,286046998.3,N
1459711155.9,286047002.7,N
1459711175.7,286047000.2,N
1459711195.5,286047002.2,N
1459711215.4,286047002.3,N
1459711235.2,286047002.0,N
1459711255.0,286046998.3,N
1459711255.9,286046998.3,N
1459711275.8,286047000.6,N
1459711295.6,286046999.9,N
1459711315.4,286047000.7,N
1459711335.2,286046999.7,N
1459711355.1,286047002.8,N
1459711356.0,286047002.8,N
1459711375.8,286046998.8,N
1459711395.6,286046999.2,N
1459711415.5,286046999.2,N
1459711435.3,286046997.3,N
1459711455.1,286046998.4,N
1459711475.9,286046998.3,N
1459711495.7,286047000.3,N
1459711515.5,286047001.5,N
1459711535.4,286047000.4,N
1459711555.2,286046999.7,N
1459711575.0,286047000.5,N
1459711575.9,286047000.5,N
1459711595.8,286047002.3,N
1459711615.6,286047002.8,N
1459711635.4,286047002.5,N
1459711655.3,286047000.2,N
1459711675.1,286047004.4,N
1459711676.0,286047004.4,N
1459711695.8,286047002.1,N
1459711715.7,286047002.7,N
1459711735.5,286046999.8,N
1459711755.3,286047000.0,N
1459711775.1,286047000.9,N
1459711795.9,286047000.2,N
1459711815.7,286046999.4,N
1459711835.5,286046994.9,N
1459711855.4,286046999.5,N
1459711875.2,286046999.8,N
1459711895.0,286046998.5,N
1459711895.9,286046998.5,N
1459711915.8,286046998.3,N
1459711935.6,286046999.7,N
1459711955.4,286047001.1,N
1459711975.3,286046999.1,N
1459711995.1,286047002.3,N
1459711996.0,286047002.3,N
1459712015.8,286046999.9,N
1459712035.7,286047000.2,N
1459712055.5,286047001.0,N
1459712075.3,286046998.5,N
1459712095.2,286047002.7,N
1459712115.9,286047002.4,N
1459712135.7,286047004.3,N
1459712155.5,286047000.2,N
1459712175.4,286047003.0,N
1459712195.2,286047001.3,N
1459712215.0,286047001.7,N
1459712215.9,286047001.7,N
1459712235.8,286047003.9,N
1459712255.6,286047005.8,Y
1459712275.4,286047005.8,P
1459712295.3,286047004.9,N
1459712315.1,286047005.2,N
1459712335.8,286047002.9,N
1459712355.7,286047003.6,N
1459712375.5,286047001.4,N
1459712395.3,286047001.5,N
1459712415.2,286047004.2,N
1459712435.9,286047001.7,N
1459712455.7,286047002.0,N
1459712475.6,286047001.8,N
1459712495.4,286047000.1,N
1459712515.2,286047002.1,N
1459712535.0,286047002.1,N
1459712536.0,286047002.1,N
1459712555.8,286047002.3,N
1459712575.6,286047001.3,N
1459712595.4,286047003.9,N
1459712615.3,286047001.5,N
1459712635.1,286047003.9,N
1459712655.8,286047000.7,N
1459712675.7,286047001.0,N
1459712695.5,286046998.8,N
1459712715.3,286046999.4,N
1459712735.2,286046998.7,N
1459712755.9,286047000.5,N
1459712775.7,286047000.9,N
1459712795.6,286047000.6,N
1459712815.4,286047002.4,N
1459712835.2,286047002.3,N
1459712855.0,286047000.2,N
1459712855.9,286047000.2,N
1459712875.8,286046999.9,N
1459712895.6,286047001.5,N
1459712915.4,286047001.3,N
1459712935.3,286047003.9,N
1459712955.1,286047004.2,N
1459712975.8,286047001.5,N
1459712995.7,286047004.4,Y
1459713015.5,286047002.6,P
1459713035.3,286047002.4,P
1459713055.2,286047002.1,P
1459713075.9,286047001.3,N
1459713095.7,286047004.0,Y
1459713115.6,286046999.2,P
1459713135.4,286046997.1,N
1459713155.2,286046995.1,N
1459713175.1,286046997.5,N
1459713176.0,286046997.5,N
1459713195.8,286046998.0,N
1459713215.6,286046996.1,N
1459713235.5,286046997.9,N
1459713255.3,286046998.8,N
1459713275.1,286046998.7,N
1459713295.9,286046996.9,N
1459713315.7,286046997.1,N
1459713335.5,286046996.0,N
1459713355.3,286046995.2,N
1459713375.2,286046998.0,N
1459713395.0,286046995.1,Y
1459713395.9,286046995.1,P
1459713415.8,286046997.2,N
1459713435.6,286046997.1,N
1459713455.4,286046996.7,Y
1459713475.3,286047002.3,P
1459713495.1,286047002.9,N
1459713496.0,286047002.9,N
1459713515.8,286046999.7,N
1459713535.6,286047001.4,N
1459713555.5,286047002.0,N
1459713575.3,286047001.3,N
1459713595.1,286047002.1,N
